Simultaneous Nadir Overpasses (SNOs) Predictions

Prediction of SNOs between GOES-17 and LANDSAT-8 Satellite Orbit:

Table of predicted SNOs for the next 14.0 days since TLE Epoch: 8/6/2022
Index Date Time (GOES-17) GOES-17 Lat,Lon LANDSAT-8 Lat,Lon Distance(km) Time Diff (sec)
1 08/07/2022 07:23:25 0.02,-137.31 -0.11,-138.00 78.18 80
2 08/09/2022 07:13:54 0.02,-137.29 0.49,-135.04 256.29 80
3 08/09/2022 19:32:30 -0.03,-137.29 0.60,-140.20 330.77 80
4 08/11/2022 19:23:00 -0.03,-137.27 -0.06,-137.25 4.23 80
5 08/13/2022 19:10:49 -0.03,-137.25 -0.67,-134.29 336.51 80
6 08/14/2022 07:29:33 0.04,-137.24 -0.46,-139.47 254.41 80
7 08/16/2022 07:20:03 0.04,-137.22 0.21,-136.52 79.25 80
8 08/18/2022 07:07:52 0.03,-137.19 0.82,-133.57 412.38 80
9 08/18/2022 19:26:27 -0.03,-137.18 0.32,-138.71 175.09 80
